This is the latest recevied weather packets stored in our database for station/object SP2WM. If no packets are shown the sender has not sent any weather packets the latest 10 day(s).
| Time | Temp. | Humidity | Pressure | Rain* | Wind** | Luminosity | Snow |
|---|---|---|---|---|---|---|---|
| 1777800622 | 25° C | 31% | 1013.5 hPa | 0 mm | - | - | - |
| 1777800021 | 24.44° C | 31% | 1013.6 hPa | 0 mm | - | - | - |
| 1777799424 | 24.44° C | 32% | 1013.6 hPa | 0 mm | - | - | - |
| 1777798826 | 24.44° C | 31% | 1013.6 hPa | 0 mm | - | - | - |
| 1777798226 | 24.44° C | 31% | 1013.8 hPa | 0 mm | - | - | - |
| 1777797624 | 23.89° C | 32% | 1013.9 hPa | 0 mm | - | - | - |
| 1777797024 | 23.33° C | 31% | 1013.8 hPa | 0 mm | - | - | - |
| 1777796428 | 23.33° C | 31% | 1013.8 hPa | 0 mm | - | - | - |
| 1777795828 | 23.33° C | 31% | 1013.8 hPa | 0 mm | - | - | - |
| 1777795228 | 22.78° C | 32% | 1013.9 hPa | 0 mm | - | - | - |
| 1777794629 | 22.78° C | 33% | 1013.9 hPa | 0 mm | - | - | - |
| 1777794033 | 22.22° C | 33% | 1014 hPa | 0 mm | - | - | - |
| 1777793432 | 21.67° C | 33% | 1014 hPa | 0 mm | - | - | - |
| 1777792834 | 21.67° C | 34% | 1014 hPa | 0 mm | - | - | - |
| 1777792234 | 21.67° C | 36% | 1014 hPa | 0 mm | - | - | - |
| 1777791639 | 21.11° C | 38% | 1014.2 hPa | 0 mm | - | - | - |
| 1777791039 | 20.56° C | 39% | 1014.2 hPa | 0 mm | - | - | - |
| 1777790438 | 20° C | 41% | 1014.2 hPa | 0 mm | - | - | - |
| 1777789838 | 19.44° C | 44% | 1014.2 hPa | 0 mm | - | - | - |
| 1777789237 | 18.89° C | 47% | 1014.3 hPa | 0 mm | - | - | - |
| 1777788622 | 17.78° C | 51% | 1014.4 hPa | 0 mm | - | - | - |
| 1777788022 | 16.67° C | 53% | 1014.3 hPa | 0 mm | - | - | - |
| 1777787421 | 16.11° C | 56% | 1014.5 hPa | 0 mm | - | - | - |
| 1777786821 | 15.56° C | 58% | 1014.5 hPa | 0 mm | - | - | - |
| 1777786225 | 15° C | 60% | 1014.5 hPa | 0 mm | - | - | - |
* Rain latest hour (hover to see other rain measurements)
** Current wind speed in m/s (hover to see current wind gust speed)